Hourly Data Report for September 14, 2017

All times are specified in Local Standard Time (LST). Add 1 hour to adjust for Daylight Saving Time where and when it is observed.

CHARLOTTETOWN A
PRINCE EDWARD ISLAND

46°17'21.000" N
63°07'09.000" W
48.50 m
8300301
71706
YYG

Download Data

Hourly Data (September 2017)
Hourly Data Report for September 14, 2017
Temp Definition
°C
Dew Point Temp Definition
°C
Rel Hum Definition
%
Wind Dir Definition
10's deg

Wind Spd Definition
km/h
Visibility Definition
km
Stn Press Definition
kPa
Hmdx Definition


Wind Chill Definition


Weather Definition


TIME
00:00 Legend Double Dagger 16.2 13.3 83 23 8 24.1 100.07     LegendNANA
01:00 Legend Double Dagger 16.0 13.3 84 23 11 24.1 100.08     LegendNANA
02:00 Legend Double Dagger 16.1 13.3 83 24 14 24.1 100.08     Clear
03:00 Legend Double Dagger 15.9 13.2 84 24 14 24.1 100.06     LegendNANA
04:00 Legend Double Dagger 15.9 13.3 84 24 14 24.1 100.09     LegendNANA
05:00 Legend Double Dagger 16.1 13.4 84 24 19 24.1 100.12     Clear
06:00 Legend Double Dagger 15.9 13.4 85 25 18 24.1 100.16     LegendNANA
07:00 Legend Double Dagger 16.3 13.6 84 24 21 24.1 100.22     LegendNANA
08:00 Legend Double Dagger 17.8 14.2 79 25 17 24.1 100.26     Mainly Clear
09:00 Legend Double Dagger 19.8 14.5 71 25 18 24.1 100.29     LegendNANA
10:00 Legend Double Dagger 21.8 15.0 65 26 15 24.1 100.30 26   LegendNANA
11:00 Legend Double Dagger 22.5 16.1 66 23 15 24.1 100.31 27   Mainly Clear
12:00 Legend Double Dagger 23.3 16.5 65 23 13 24.1 100.28 28   LegendNANA
13:00 Legend Double Dagger 23.8 16.4 63 24 11 24.1 100.27 29   LegendNANA
14:00 Legend Double Dagger 24.6 16.4 60 25 9 24.1 100.26 29   Mainly Clear
15:00 Legend Double Dagger 24.7 16.6 60 26 12 24.1 100.28 30   LegendNANA
16:00 Legend Double Dagger 24.4 15.0 55 25 15 24.1 100.29 28   LegendNANA
17:00 Legend Double Dagger 23.5 15.0 59 25 16 24.1 100.31 27   Mainly Clear
18:00 Legend Double Dagger 22.2 15.1 64 25 15 24.1 100.36 26   LegendNANA
19:00 Legend Double Dagger 20.8 15.0 69 25 13 24.1 100.43 25   LegendNANA
20:00 Legend Double Dagger 19.9 14.9 73 24 14 24.1 100.51     Mainly Clear
21:00 Legend Double Dagger 19.2 14.9 76 25 18 24.1 100.53     LegendNANA
22:00 Legend Double Dagger 18.0 14.7 81 30 10 24.1 100.61     LegendNANA
23:00 Legend Double Dagger 16.7 14.4 86 32 7 24.1 100.66     Mainly Clear

Notes on Data Quality.

Legend

  • E = Estimated
  • M = Missing
  • NA = Not Available
  • ‡ = Partner data that is not subject to review by the National Climate Archives
Date modified: